THOR ABLESTAR DEB, 48817

Orbit data source: Space-Track

THOR ABLESTAR DEB, 48817 is space debris in LEO originally from a launch on Thu, 29 Jun 1961 UTC launched from the Air Force Eastern Test Range (AFETR). Debris objects in space refer to the collection of defunct objects orbiting the Earth. Examples of debris include non-operational satellites, rocket bodies, and fragments generated from explosions, collisions, or faulty payload assembly.

Loading next visibility...
Identifier
48817, 1961-015MV
Orbit
LEO
Country
Flag of USUS
Related business
Manufacturer
Unknown
Mission
Spacecraft
Bus & Motor
Unknown
Mass
Unknown
Launch date (UTC)
1961-06-29 (64 years ago)
Launch vehicle
Unknown
Launch site
Air Force Eastern Test Range (AFETR)
Object type
Payload
Rocket body
Debris
Shape & HBR
Unknown shape, 0.1 m
Radar Cross Section
Small (<0.1 m²)

Expand to show TLE details & history
Last TLE update: 3 days ago

TLE from 3 days ago
0 THOR ABLESTAR DEB
1 48817U 61015MV  25336.76726595  .00000242  00000-0  22040-3 0  9996
2 48817  65.8399 143.1870 0214664 313.4944  44.8452 13.89835489609960
Epoch: 2025-12-02T18:24Z
TLE epoch observation values (Epoch: 2025-12-02T18:24:51.778Z)
Latitude
-0.00004°
Longitude
155.12355°
Altitude
821.695 km
Speed
7.498 km/s
True Right ascension
09h 32m 44s
True Declination
0° 00' 00"
Sunlit
Object was in daylight at epoch
Visualization orbit readout
Latitude
Unknown
Longitude
Unknown
Altitude
Unknown
Speed
Unknown
Apparent Right ascension
Unknown
Apparent Declination
Unknown
Sunlit
N/A
Visualization observer readout
Local Sidereal Time
12:59:44
Azimuth
Unknown
Elevation
Unknown
Doppler factor
Unknown
Orbital elements
Apogee altitude
1,084.542 km
Perigee altitude
770.882 km
Semi-major axis
7,305.849 km
Eccentricity
0.02147
Inclination
65.8399°
RAAN
143.187°
Arg. of periapsis
313.4944°
True anomaly
46.61322°
Mean anomaly
44.8452°
Eccentric anomaly
45.72584°
Mean motion
3.47566 °/min
Orbital period
103.58 mins
BSTAR
0.0002204

Documentation

Showing up to 5 results
|